Vorticity
12 5 -19 -10 8 27 24 14 3 45 -11 -1 -7 14 -4 16 -3 5 10 6 8 16 15 8 8 9 30 5 16 14 13 11 10 5 5 3 3 5 3 4 4 7 -1 3
7 -8 6 2 9 -34 -2 -1 1 -11 15 -3 17 15 36 20 -0 15 -2 -4 13 -2 19 13 8 13 -31 12 22 16 18 12 9 8 5 5 4 3 5 5 3 4 5 3
11 -6 -7 10 10 4 1 3 11 14 -2 36 -5 6 4 7 6 -1 0 1 10 12 12 22 9 19 1 8 8 13 22 17 13 10 7 8 5 4 3 4 5 6 2 2
17 1 22 -9 -0 3 1 1 -4 -12 -13 6 -4 -1 19 16 -24 23 4 7 2 13 5 23 8 13 5 8 8 22 22 6 7 9 8 12 7 6 5 2 4 -5 -35 7
26 2 -5 28 6 15 -5 15 17 40 5 1 4 12 17 2 -1 -14 9 4 6 9 14 19 17 26 -9 19 6 11 26 25 10 8 9 4 7 14 14 5 32 -6 13 4
1 -3 7 -7 1 5 -3 -7 3 24 1 4 46 12 3 12 -11 -5 12 8 6 13 19 21 12 23 2 7 4 5 6 3 8 9 10 14 8 11 15 18 16 3 5 7
16 -1 5 4 -4 36 4 16 15 -3 2 40 8 7 1 -14 3 -13 -1 12 8 10 12 16 25 12 5 5 2 4 4 5 7 7 7 6 7 5 10 23 19 16 13 6
13 12 -1 19 -3 9 2 34 6 3 12 -16 13 14 -19 -23 2 -4 6 4 14 12 7 25 15 9 4 6 2 8 13 3 7 7 7 7 8 5 8 21 22 17 23 18
11 26 42 5 5 -6 10 3 16 0 -8 -4 9 9 24 15 2 -10 -5 11 17 14 8 18 14 6 6 11 3 7 7 5 5 8 7 9 8 11 14 3 6 -2 -1 8
20 0 6 -11 5 14 31 5 -9 -5 -16 12 12 16 20 -7 -6 39 0 2 22 14 10 13 19 12 8 7 2 4 6 5 7 8 8 7 8 7 10 9 8 9 6 4
28 4 5 13 -7 22 35 8 0 12 3 -1 12 1 6 21 12 11 28 14 8 15 3 7 11 15 8 7 1 4 7 5 6 6 7 8 5 6 5 4 5 5 5 5
23 0 10 2 12 4 28 32 -2 5 10 1 -3 -5 2 -4 -5 8 37 8 19 12 9 8 14 6 19 7 3 6 4 6 4 6 6 6 9 7 6 5 5 6 6 6
7 20 1 1 7 1 42 6 -6 10 -14 -9 8 11 15 -1 27 149 1 0 6 10 12 11 9 14 7 8 7 6 6 5 5 6 6 5 5 9 10 10 9 7 7 6
7 8 5 5 2 -20 -17 26 10 2 -4 12 1 -1 -3 13 20 30 -6 9 13 13 7 3 6 9 12 9 7 6 8 8 7 5 5 5 4 4 6 7 7 7 7 7
4 16 19 1 -9 7 3 -2 -2 -2 20 2 1 9 6 1 7 59 1 11 5 4 21 17 6 4 8 10 10 6 1 3 9 10 9 5 6 5 6 6 6 7 8 8
27 20 30 -6 -5 31 14 17 -6 9 -6 2 4 7 7 16 2 17 -8 11 2 11 12 13 17 16 6 3 6 12 11 11 8 8 13 13 14 13 14 10 11 9 8 8
9 24 36 -6 -2 -4 57 -19 16 4 -8 4 -1 -7 6 15 -3 3 -5 12 16 0 10 8 8 10 10 6 2 7 10 11 11 9 9 12 12 11 10 9 9 8 8 7
-4 31 19 24 -3 2 12 -9 18 1 -1 8 1 -2 -6 13 -4 18 13 4 2 6 11 12 5 7 8 9 8 10 15 19 14 16 14 8 9 8 8 9 8 6 6 7
11 10 25 18 -7 -5 -1 8 6 -5 7 6 -5 1 4 -2 -1 -8 -14 -8 -11 2 14 10 11 9 8 7 6 7 12 13 16 18 17 12 9 9 9 8 8 7 9 10
3 -3 22 7 12 0 0 11 -2 5 4 3 6 5 -6 -8 52 58 19 -3 5 11 11 9 10 9 7 6 6 7 11 12 11 12 13 12 11 10 10 8 9 11 6 5
6 1 -5 9 10 -0 -3 7 10 5 12 6 -2 2 -2 1 -30 9 5 1 6 9 8 8 10 6 8 8 7 8 10 11 9 8 9 10 10 8 8 12 6 8 11 12
10 1 18 11 3 5 6 7 4 2 11 17 -7 3 0 51 21 -3 2 9 6 9 10 7 8 10 6 6 7 8 13 9 8 8 11 12 9 9 10 7 10 12 7 11
-82 22 20 6 42 -74 82 49 16 12 12 56 27 45 43 22 -2 10 10 16 16 3 7 9 8 8 6 3 6 12 10 8 12 9 13 11 6 11 7 8 9 4 4 4
63 -13 6 -20 -6 -3 -52 -34 25 -17 -39 14 -2 54 -6 5 6 6 7 7 8 15 13 12 12 10 11 8 9 13 9 7 11 15 13 7 11 8 5 6 4 7 4 3
36 8 21 21 40 46 4 51 61 21 9 8 -15 7 9 10 12 8 6 5 8 10 10 7 8 12 12 10 11 14 7 9 11 10 8 9 12 6 8 5 7 3 5 3
1 25 20 10 22 14 -30 -10 -7 7 18 22 13 12 11 10 7 9 9 7 8 11 8 11 15 11 13 12 13 12 8 11 10 10 7 11 10 5 10 10 8 5 2 4
Height
5920 5923 5921 5923 5925 5929 5929 5928 5925 5921 5920 5916 5925 5923 5921 5922 5909 5911 5908 5913 5912 5905 5907 5902 5900 5899 5897 5897 5898 5903 5906 5904 5909 5908 5909 5912 5914 5916 5918 5921 5922 5920 5919 5918
5919 5920 5921 5923 5923 5927 5930 5927 5926 5921 5924 5922 5928 5921 5920 5914 5910 5912 5916 5915 5910 5909 5903 5904 5902 5901 5900 5901 5903 5902 5902 5903 5908 5908 5908 5911 5913 5914 5918 5921 5916 5917 5916 5913
5918 5919 5918 5914 5913 5925 5928 5928 5928 5930 5932 5931 5930 5924 5921 5920 5914 5921 5918 5916 5913 5909 5905 5900 5903 5896 5896 5903 5900 5898 5903 5902 5907 5908 5909 5910 5910 5913 5917 5916 5913 5911 5899 5909
5914 5916 5918 5921 5921 5921 5933 5930 5932 5932 5931 5928 5928 5926 5927 5924 5924 5926 5923 5915 5912 5906 5904 5898 5896 5903 5903 5898 5899 5904 5903 5902 5905 5907 5908 5908 5909 5910 5911 5910 5905 5907 5889 5907
5913 5914 5918 5920 5922 5924 5931 5931 5930 5928 5928 5927 5926 5925 5922 5925 5927 5927 5924 5918 5913 5909 5904 5896 5896 5901 5892 5902 5905 5902 5902 5903 5906 5907 5907 5907 5908 5906 5907 5914 5909 5905 5908 5910
5907 5909 5909 5917 5917 5920 5926 5928 5926 5927 5924 5925 5925 5920 5918 5921 5922 5924 5922 5918 5913 5908 5906 5902 5896 5899 5904 5906 5904 5905 5907 5908 5907 5907 5907 5907 5908 5906 5904 5903 5905 5904 5907 5900
5902 5905 5904 5914 5915 5917 5920 5923 5924 5924 5923 5923 5923 5913 5904 5915 5916 5922 5923 5920 5914 5909 5905 5902 5899 5899 5904 5906 5907 5907 5908 5908 5907 5907 5906 5906 5906 5905 5902 5901 5902 5903 5902 5902
5898 5902 5905 5909 5911 5913 5917 5919 5921 5919 5921 5923 5919 5913 5909 5909 5915 5921 5920 5919 5913 5911 5907 5904 5902 5904 5905 5907 5908 5908 5908 5908 5908 5906 5905 5905 5904 5903 5901 5899 5899 5899 5899 5900
5894 5898 5903 5906 5910 5911 5914 5914 5918 5919 5920 5919 5914 5911 5911 5910 5912 5915 5916 5916 5915 5914 5908 5905 5904 5904 5904 5907 5908 5908 5907 5907 5907 5906 5905 5904 5903 5901 5900 5900 5901 5900 5900 5900
5893 5893 5897 5904 5907 5907 5908 5914 5913 5915 5916 5919 5913 5912 5913 5912 5911 5913 5914 5913 5913 5912 5907 5903 5902 5904 5904 5905 5906 5907 5907 5906 5906 5905 5903 5902 5902 5901 5900 5899 5898 5898 5897 5897
5891 5892 5895 5898 5901 5903 5904 5906 5907 5911 5914 5914 5914 5914 5916 5913 5908 5913 5914 5912 5910 5909 5906 5903 5901 5902 5903 5904 5904 5904 5904 5903 5903 5902 5901 5900 5899 5899 5898 5897 5896 5896 5896 5895
5886 5890 5890 5894 5896 5899 5899 5901 5906 5907 5911 5913 5913 5912 5912 5910 5910 5910 5915 5912 5906 5904 5904 5902 5901 5900 5901 5901 5901 5900 5899 5899 5899 5899 5898 5897 5896 5895 5894 5894 5894 5893 5893 5893
5884 5884 5888 5889 5893 5896 5895 5899 5902 5905 5906 5905 5909 5907 5906 5907 5906 5898 5910 5906 5903 5901 5900 5899 5898 5898 5898 5898 5898 5897 5896 5896 5895 5894 5893 5892 5892 5892 5890 5890 5890 5889 5889 5888
5879 5879 5884 5886 5891 5895 5894 5898 5900 5903 5902 5901 5904 5902 5900 5898 5903 5903 5905 5902 5895 5896 5899 5898 5896 5896 5895 5894 5893 5893 5892 5891 5890 5889 5888 5887 5887 5887 5886 5885 5885 5884 5883 5882
5875 5875 5879 5883 5885 5888 5889 5890 5896 5898 5899 5899 5898 5896 5890 5892 5889 5893 5892 5885 5891 5895 5895 5895 5893 5893 5892 5891 5890 5889 5888 5887 5885 5884 5883 5882 5882 5881 5881 5880 5879 5878 5877 5876
5867 5868 5874 5876 5879 5883 5886 5886 5890 5896 5896 5895 5891 5887 5879 5880 5883 5889 5885 5890 5892 5893 5894 5890 5889 5889 5888 5887 5886 5885 5883 5882 5881 5879 5877 5876 5876 5875 5875 5874 5873 5872 5872 5870
5859 5863 5866 5871 5876 5880 5881 5884 5885 5890 5890 5886 5887 5881 5876 5868 5873 5878 5885 5895 5892 5891 5887 5886 5885 5885 5884 5883 5881 5879 5877 5875 5874 5873 5872 5871 5870 5869 5868 5867 5866 5865 5864 5863
5853 5857 5860 5865 5873 5875 5876 5879 5883 5881 5879 5883 5881 5879 5874 5873 5867 5868 5877 5884 5883 5880 5882 5882 5882 5881 5879 5877 5875 5873 5870 5868 5866 5865 5864 5863 5863 5863 5862 5861 5860 5858 5857 5855
5851 5850 5853 5858 5865 5871 5873 5875 5878 5878 5879 5877 5877 5876 5874 5872 5875 5879 5878 5879 5880 5880 5879 5878 5876 5875 5872 5871 5868 5867 5864 5862 5860 5859 5857 5857 5857 5856 5856 5854 5854 5852 5849 5847
5844 5848 5849 5853 5858 5861 5864 5866 5868 5873 5872 5870 5870 5868 5870 5870 5870 5875 5879 5878 5875 5874 5872 5870 5870 5869 5867 5865 5862 5861 5859 5857 5855 5854 5853 5851 5850 5850 5849 5847 5846 5845 5842 5840
5837 5842 5845 5847 5849 5852 5854 5858 5861 5865 5872 5862 5861 5862 5863 5856 5856 5871 5871 5869 5868 5866 5864 5863 5863 5862 5861 5857 5856 5855 5854 5852 5850 5848 5847 5846 5845 5843 5842 5841 5839 5838 5835 5832
5830 5830 5834 5835 5836 5842 5845 5849 5855 5857 5859 5859 5856 5849 5854 5851 5848 5857 5858 5857 5856 5855 5855 5855 5857 5856 5854 5851 5849 5847 5847 5845 5843 5842 5841 5839 5837 5836 5835 5834 5832 5830 5827 5825
5822 5822 5827 5831 5829 5831 5829 5839 5848 5850 5852 5849 5852 5852 5852 5857 5852 5852 5852 5851 5851 5851 5848 5847 5847 5848 5846 5844 5842 5840 5839 5837 5836 5835 5833 5832 5830 5829 5828 5827 5825 5823 5821 5818
5819 5821 5825 5826 5821 5826 5830 5825 5834 5837 5841 5845 5844 5845 5846 5848 5846 5847 5848 5847 5844 5843 5842 5840 5837 5836 5835 5835 5832 5831 5831 5829 5827 5826 5825 5824 5823 5822 5821 5819 5817 5816 5812 5810
5816 5820 5822 5819 5824 5825 5825 5818 5826 5827 5833 5834 5838 5836 5840 5842 5841 5841 5841 5840 5837 5835 5834 5832 5829 5828 5827 5824 5822 5822 5821 5820 5819 5818 5818 5816 5815 5815 5813 5811 5809 5808 5805 5803
5810 5814 5816 5809 5814 5819 5812 5785 5805 5819 5822 5824 5828 5830 5832 5831 5831 5831 5830 5830 5828 5826 5823 5822 5821 5820 5817 5815 5814 5813 5812 5811 5810 5810 5810 5808 5807 5807 5805 5803 5801 5799 5797 5793